User: anonymous   Login
Location: East Guldeford
(50.9500°N, 0.7500°E)
Time: 01:00:48
(UTC+00:00)
Language:

SL-27 R/B - Orbit

View from above orbital plane
View from above orbital plane
View from above satellite
View from above satellite

Ground track
Ground track

The orbit data is extracted from the following two-line orbital elements,

1 40354U 14084B   21217.55695130  .00000987  00000-0  24465-4 0  9999
2 40354  74.7359 250.7678 0037624 232.3823 127.3973 15.41243929371905
Epoch (UTC): 05 August 2021 13:22:00
Eccentricity: 0.0037624
inclination: 74.7359°
perigee height: 417 km
apogee height: 468 km
right ascension of ascending node: 250.7678°
argument of perigee: 232.3823°
revolutions per day: 15.41243929
mean anomaly at epoch: 127.3973°
orbit number at epoch: 37190

The dashed part of the orbit path shows where the satellite is in the earth's shadow,  

DLR